Home > Weather > Rodez > Past weeks

Flag for France Past Weather in Rodez, Midi-Pyrénées, France — Yesterday and Last 2 Weeks

Now
77 °F

Partly sunny.


Feels Like: 79 °F
Forecast: 55 / 74 °F
Wind: 9 mph from Northwest

Location: Rodez Airport

Current Time: Jul 27, 2016 at 3:37:10 PM

Latest Report: Jul 27, 2016 at 3:00 PM


Visibility: N/A

Pressure: 30.18 "Hg (28.04 "Hg at 642m altitude)

Humidity: 51%

Dew Point: 57 °F

Location of RodezLocation

Past Weather in Rodez — Graph

°F

Rodez Temperature Yesterday

Maximum temperature yesterday: 81 °F (at 3:00 PM)
Minimum temperature yesterday: 59 °F (at 5:30 AM)
Average temperature yesterday: 70 °F

High & Low Weather Summary for the Past Weeks

 TemperatureHumidityPressure
High91 °F (Jul 19, 2:00 PM)100% (Jul 13, 8:00 AM)30.33 "Hg (Jul 13, 8:00 AM)
Low43 °F (Jul 15, 5:30 AM)15% (Jul 19, 11:00 AM)30.01 "Hg (Jul 20, 11:30 AM)
Average67 °F65%30.16 "Hg
* Reported Jul 12 2:00 PM — Jul 27 2:30 PM, Rodez, Weather by CustomWeather, © 2016

Note: Actual official high and low records may vary slightly from our data, if they occured in-between our weather recording intervals... More about our weather records

Advertising

Rodez Weather History for the Previous 24 Hours

Scroll right to see more
 ConditionsComfort  
Time TempWeatherWind HumidityBarometerVisibility
2:30 PM
Wed, Jul 27
75 °FPartly sunny.10 mph54%30.18 "HgN/A
2:00 PM73 °FPartly sunny.9 mph61%30.18 "HgN/A
1:30 PM75 °FScattered clouds.10 mph57%30.18 "HgN/A
1:00 PM73 °FPassing clouds.12 mph61%30.18 "HgN/A
12:30 PM70 °FScattered clouds.10 mph69%30.21 "HgN/A
12:00 PM70 °FPartly sunny.12 mph69%30.21 "HgN/A
11:30 AM72 °FScattered clouds.12 mph65%30.18 "HgN/A
11:00 AM70 °FPartly sunny.10 mph69%30.18 "HgN/A
10:30 AM70 °FPassing clouds.9 mph69%30.18 "HgN/A
10:00 AM68 °FPassing clouds.6 mph73%30.18 "HgN/A
9:30 AM66 °FSunny.5 mph78%30.18 "Hg10 mi
9:00 AM66 °FPassing clouds.3 mph78%30.18 "HgN/A
8:30 AM64 °FSunny.2 mph78%30.18 "Hg10 mi
8:00 AM61 °FSunny.No wind94%30.18 "Hg10 mi
7:30 AM57 °FPassing clouds.No wind94%30.18 "HgN/A
7:00 AM57 °FPassing clouds.2 mph94%30.15 "HgN/A
6:30 AM57 °FPassing clouds.2 mph94%30.15 "HgN/A
6:00 AM57 °FClear.1 mph88%30.15 "Hg10 mi
5:30 AM59 °FClear.2 mph88%30.15 "Hg10 mi
5:00 AM59 °FClear.2 mph88%30.15 "Hg10 mi
4:30 AM61 °FClear.2 mph83%30.15 "Hg10 mi
4:00 AM61 °FClear.1 mph83%30.15 "Hg10 mi
3:30 AM61 °FClear.2 mph88%30.15 "Hg10 mi
3:00 AM61 °FClear.2 mph83%30.15 "Hg10 mi
2:30 AM64 °FClear.2 mph78%30.15 "Hg10 mi
2:00 AM63 °FClear.2 mph83%30.18 "Hg10 mi
1:30 AM64 °FClear.3 mph73%30.18 "Hg10 mi
1:00 AM64 °FClear.6 mph78%30.18 "Hg10 mi
12:30 AM66 °FClear.6 mph73%30.18 "Hg10 mi
12:00 AM66 °FClear.6 mph73%30.18 "Hg10 mi
11:30 PM
Tue, Jul 26
66 °FClear.7 mph73%30.18 "Hg10 mi
11:00 PM68 °FClear.8 mph69%30.18 "Hg10 mi
10:30 PM70 °FClear.8 mph64%30.18 "Hg10 mi
10:00 PM70 °FSunny.8 mph64%30.18 "Hg10 mi
9:30 PM72 °FSunny.7 mph61%30.15 "Hg10 mi
9:00 PM72 °FSunny.6 mph61%30.15 "Hg10 mi
8:30 PM75 °FSunny.8 mph50%30.15 "Hg10 mi
8:00 PM79 °FPassing clouds.10 mph45%30.15 "HgN/A
7:30 PM79 °FPassing clouds.10 mph48%30.15 "HgN/A
7:00 PM79 °FSunny.12 mph48%30.15 "Hg10 mi
6:30 PM81 °FSunny.13 mph48%30.15 "Hg10 mi
6:00 PM81 °FPassing clouds.12 mph48%30.15 "HgN/A
5:30 PM81 °FPassing clouds.13 mph45%30.15 "HgN/A
5:00 PM81 °FPassing clouds.12 mph42%30.15 "HgN/A
4:30 PM81 °FPassing clouds.12 mph45%30.18 "HgN/A
4:00 PM81 °FSunny.10 mph45%30.18 "Hg10 mi
3:30 PM79 °FPassing clouds.10 mph48%30.18 "HgN/A
3:00 PM81 °FPassing clouds.9 mph48%30.18 "HgN/A
Weather by CustomWeather, © 2016

See weather overviewHow to use our weather pages